Location: Povegliano Veronese
(45.3333°N, 10.8667°E)
Time: 14:24:48
(UTC+00:00)

Daily predictions for brighter satellites

Satellite Brightness Start Highest point End
(mag) Time Altitude Azimuth Time Altitude Azimuth Time Altitude Azimuth
Cosmos 1953 2.7 18:17:36 10° SSE 18:21:19 40° E 18:25:04 10° NNE
Cosmos 1992 Rocket 4.1 18:16:14 10° NNW 18:21:25 61° ENE 18:26:33 10° SSE
STARLINK-1101 4.4 18:18:08 10° WNW 18:22:09 50° SW 18:26:09 10° SE
Cosmos 2228 4.3 18:19:26 10° SE 18:22:39 21° E 18:25:54 10° NE
Cosmos 1437 3.9 18:20:14 10° NNE 18:22:44 23° ENE 18:25:13 10° SE
Cosmos 1818 4.1 18:19:46 10° S 18:24:41 36° ESE 18:29:38 10° NE
Cosmos 2263 4.4 18:23:23 10° NNW 18:28:54 55° ENE 18:34:23 10° SE
Meteor 2-15 Rocket 4.4 18:24:50 10° S 18:30:51 72° E 18:36:55 10° NNE
Cosmos 1470 3.1 18:27:36 10° SSW 18:31:28 70° W 18:35:23 10° N
Cosmos 1943 3.4 18:27:48 10° S 18:33:14 49° ESE 18:38:41 10° NE
SL-08 RB Rocket 4.3 18:29:21 10° SE 18:33:32 38° ENE 18:37:47 10° N
ARGOS Delta rocket 4.1 18:29:22 10° SSE 18:34:36 87° E 18:40:06 10° N
Aureole 2 Rocket 2.6 18:34:06 10° NNW 18:37:36 73° WSW 18:40:58 10° SSE
CZ-2C R/B 2.9 18:33:12 10° SSE 18:38:04 64° ENE 18:42:47 10° N
BREEZE-M DEB (TANK) 2.3 18:31:34 10° WSW 18:38:19 86° SSE 18:40:55 10° ENE
H-2A R/B 2.0 18:42:34 10° SSE 18:47:49 87° ENE 18:52:57 10° NNW
NOSS 3-4 (A) 4.2 18:46:10 10° NNW 18:52:53 51° NE 18:58:54 16° ESE
NOSS 3-4 (C) 4.2 18:46:17 10° NNW 18:52:59 50° NE 18:58:59 16° ESE
Cosmos 1656 Rocket 3.8 18:49:18 10° NNW 18:54:55 59° ENE 18:59:39 14° SE
SL-16 R/B 4.3 18:51:48 10° WSW 18:56:44 30° NW 19:01:41 10° N
CZ-2C R/B 3.2 18:53:44 10° NNE 18:58:21 32° E 19:02:58 10° SSE
Resurs 1-3 4.1 18:55:38 15° SE 18:58:57 41° ENE 19:03:04 10° N
Aureole 1 Rocket 4.5 18:51:55 10° S 18:59:14 46° ESE 19:05:10 10° NE
NOSS 3-3 (A) 4.1 18:55:29 10° SW 19:01:20 78° NW 19:08:00 10° NE
NOSS 3-3 (C) 4.1 18:55:35 10° SW 19:01:26 79° NW 19:08:06 10° NE
MetOp-A 4.3 18:56:23 10° SSE 19:01:35 55° ENE 19:06:49 10° N
Cosmos 1726 2.1 18:58:08 10° S 19:01:53 88° E 19:05:38 10° N
Cosmos 2251 Rocket 4.0 18:56:39 10° SSW 19:01:59 65° WNW 19:07:22 10° NNE
ARGOS 3.2 18:58:11 10° SSE 19:03:36 83° WSW 19:09:01 10° NNW
Cosmos 2184 Rocket 4.0 19:00:38 10° N 19:06:58 84° E 19:13:12 10° S
STARLINK-60 3.7 19:04:01 10° SSW 19:07:01 34° SE 19:07:54 28° ESE
SJ-6B 3.0 19:03:01 10° SSE 19:07:07 83° WSW 19:11:17 10° NNW
ISS -1.8 19:05:13 10° W 19:07:55 23° SW 19:10:16 12° S
BREEZE M DEB (TANK) 3.6 19:07:34 10° S 19:10:16 26° ESE 19:15:50 10° ENE
Meteor 2-10 4.2 19:05:18 10° SSW 19:10:44 84° W 19:16:24 10° N
USA 186 2.9 19:08:58 10° S 19:12:12 45° W 19:15:21 10° NNW
STARLINK-67 4.0 19:11:50 10° NW 19:14:02 24° NNE 19:14:43 22° NE
DMSP B5D2-2 4.1 19:10:32 10° NNE 19:15:40 54° E 19:20:46 10° S
Cosmos 1603 4.3 19:13:28 10° SW 19:19:02 60° WNW 19:24:37 10° NNE
FREGAT/IRIS 4.4 19:16:45 10° SSW 19:19:08 28° W 19:21:33 10° NW
STARLINK-1209 4.5 19:17:02 10° NW 19:19:35 25° NNE 19:20:37 20° NE
Cosmos 2058 Rocket 3.4 19:16:34 15° SSE 19:20:07 46° E 19:24:27 10° NNE
Ariane Rocket 4.3 19:16:09 10° SSW 19:20:55 41° W 19:25:42 10° NNW
MOS 1 Rocket 3.7 19:18:12 10° NNE 19:23:30 58° E 19:28:51 10° S
Resurs 01 Rocket 1.8 19:21:42 27° SE 19:23:47 52° ENE 19:28:05 10° N
USA 234 3.5 19:18:33 10° ENE 19:24:47 45° SE 19:30:59 10° SSW
ATLAS 2AS CENTAUR R/B 2.8 19:17:50 10° NW 19:25:30 76° NE 19:29:59 25° SE
Meteor 1-16 Rocket 4.4 19:22:48 10° SSW 19:28:10 71° WNW 19:33:44 10° N
Cosmos 2154 Rocket 4.0 19:22:50 10° N 19:29:14 80° E 19:34:52 14° SSE
Cosmos 1190 Rocket 4.1 19:24:44 10° S 19:29:53 55° ESE 19:35:04 10° NNE
Nadezhda 1 Rocket 4.0 19:24:34 10° S 19:30:59 84° E 19:37:22 10° N
Cosmos 1140 Rocket 3.6 19:26:17 10° S 19:31:15 48° ESE 19:36:14 10° NNE
SL-4 R/B 1.5 19:28:54 10° WSW 19:32:18 84° NNW 19:33:43 33° ENE
Spot 2 Rocket 4.2 19:31:32 30° ESE 19:33:07 37° ENE 19:37:47 10° N
Cosmos 1726 Rocket 3.6 19:29:04 10° S 19:33:28 82° W 19:37:56 10° N
Cosmos 1340 Rocket 2.7 19:32:48 23° S 19:35:13 65° E 19:39:14 10° NNE
ATLAS 5 CENTAUR R/B 1.6 19:33:13 10° SSW 19:37:12 49° ESE 19:41:37 10° NE
Cosmos 1328 4.3 19:36:36 10° NNW 19:40:33 58° W 19:43:15 19° S
SL-24 R/B - RUBIN 2 4.2 19:35:14 10° SSW 19:40:41 66° ESE 19:46:53 10° NE
Cosmos 1703 4.2 19:42:07 10° NNW 19:45:57 48° W 19:48:40 18° SSW
Cosmos 614 Rocket 4.1 19:43:02 10° SSW 19:48:15 75° WNW 19:53:30 10° NNE
Cosmos 1300 3.3 19:50:48 41° NE 19:50:48 41° NE 19:53:42 10° NNE
SPOT 3 Rocket 4.2 19:45:41 12° S 19:50:20 53° W 19:55:27 10° NNW
Cosmos 2369 Rocket 4.1 19:48:00 10° NW 19:52:33 25° WSW 19:57:04 10° SSW
Abrixas rocket 2.9 19:49:45 10° WNW 19:52:19 45° NNW 19:52:19 45° NNW
IGS 5A 4.4 19:53:17 33° ENE 19:53:17 33° ENE 19:56:43 10° N
COSMOS 2455 2.9 19:48:42 10° NNW 19:54:42 62° NE 19:56:39 42° ESE
Cosmos 921 Rocket 2.7 19:52:36 10° NNW 19:56:49 75° ENE 19:57:12 68° ESE
Cosmos 676 Rocket 4.0 19:56:21 38° SSE 19:58:11 58° ESE 20:03:22 10° NNE
Cosmos 407 Rocket 3.6 19:54:28 10° SSW 19:59:37 72° WNW 20:04:46 10° NNE
ERS-1 Rocket 3.6 20:07:40 38° ENE 20:07:40 38° ENE 20:12:17 10° N
ERBS 4.4 20:08:09 10° NNW 20:10:29 20° NNE 20:10:29 20° NNE
Landsat 7 3.9 20:11:38 58° ENE 20:11:42 58° ENE 20:16:23 10° N
SPOT 1/Viking Rocket 3.6 20:14:31 55° E 20:14:51 57° ENE 20:19:58 10° N
MetOp-B 4.1 20:15:08 50° S 20:16:34 83° WSW 20:21:58 10° NNW
Cosmos 1461 3.2 20:15:09 10° NW 20:19:41 68° WSW 20:19:51 67° SW
Cosmos 1954 Rocket 3.9 20:21:02 45° SSW 20:22:44 90° ESE 20:27:59 10° NNE
CZ-4C R/B 4.2 20:28:03 10° NNW 20:33:45 27° NNE 20:37:07 20° ENE
Cosmos 1697 Rocket 4.0 20:30:34 10° N 20:35:19 27° NE 20:35:27 27° NE
SPOT 5 3.6 20:36:47 37° NNE 20:36:47 37° NNE 20:39:42 10° N
Cosmos 1076 Rocket 4.2 20:31:51 10° N 20:35:03 49° N 20:35:03 49° N
CZ-2C R/B 4.0 20:33:59 10° N 20:38:39 35° WNW 20:43:19 10° SW
Cosmos 2058 4.0 20:41:33 10° N 20:44:18 41° NNW 20:44:18 41° NNW
Cosmos 1763 Rocket 3.9 20:45:18 10° NNW 20:49:35 53° NNE 20:49:35 53° NNE
Terra 2.8 20:55:02 41° NNE 20:55:02 41° NNE 20:58:20 10° N
RESURS DK-1 4.4 20:54:28 10° N 20:56:27 23° N 20:56:27 23° N
Resurs 01 Rocket 4.0 20:59:16 15° WSW 21:00:35 17° W 21:03:26 10° NW
Cosmos 2218 Rocket 4.3 20:55:22 10° NNW 21:01:27 59° W 21:02:26 53° SW
Cosmos 1980 Rocket 3.7 20:58:59 10° N 21:03:10 24° NE 21:03:10 24° NE
USA 234 3.5 21:01:30 10° NE 21:07:58 65° NNW 21:14:25 10° WSW
Cosmos 1656 4.0 21:05:52 10° NNW 21:10:37 60° N 21:10:37 60° N
ATLAS 2AS CENTAUR R/B 4.2 21:09:52 10° WNW 21:15:41 26° WSW 21:17:26 23° SW
ATLAS 5 CENTAUR R/B 3.7 21:18:26 10° W 21:22:06 26° NW 21:26:09 10° NNE
Cosmos 2082 Rocket 4.4 21:33:29 14° NE 21:33:29 14° NE 21:34:19 10° NE
Mayak 1.5 21:30:02 10° NNE 21:30:34 14° NNE 21:30:34 14° NNE
COSMOS 2455 4.4 21:35:25 10° NW 21:39:49 25° WSW 21:39:49 25° WSW
Nadezhda 3 Rocket 4.4 21:43:49 61° NNW 21:43:49 61° NNW 21:49:05 10° N
COSMOS 2406 4.3 21:45:30 39° N 21:45:30 39° N 21:49:05 10° NNE
Cosmos 1833 Rocket 4.4 21:47:50 25° NNE 21:47:50 25° NNE 21:50:04 10° NNE
ATLAS CENTAUR R/B 4.3 21:47:01 10° NNW 21:47:36 13° NNW 21:47:36 13° NNW
Cosmos 1697 Rocket 4.2 22:14:06 10° NNW 22:17:11 32° NW 22:17:11 32° NW
CZ-4C R/B 3.1 22:16:13 10° NW 22:22:18 65° N 22:22:18 65° N
SL-16 R/B 3.9 22:29:01 10° NNW 22:32:21 29° NNE 22:32:21 29° NNE
Cosmos 2360 Rocket 4.2 22:36:05 10° N 22:39:34 20° NE 22:39:34 20° NE
Cosmos 2322 Rocket 3.9 22:38:55 10° NNW 22:42:08 28° NNE 22:42:08 28° NNE
Cosmos 1980 Rocket 4.0 22:42:27 10° NNW 22:44:56 27° NW 22:44:56 27° NW
Cosmos 2082 Rocket 3.9 23:15:18 29° NNW 23:15:18 29° NNW 23:18:30 10° NNE
Cosmos 2344 4.4 23:08:50 10° NW 23:18:38 71° WSW 23:18:38 71° WSW
SL-16 R/B 4.3 23:29:17 23° ENE 23:29:42 23° ENE 23:34:25 10° N
Cosmos 2219 Rocket 4.2 23:35:51 10° N 23:40:07 22° NE 23:40:10 22° NE
